Location: *
(47.7167°N, 1.7333°W)
Time: 21:52:45
(UTC+00:00)

STARLINK-1203 - Pass Details

Date: 09 April 2020
Orbit: 559 x 560 km, 53.0° (Epoch: 29 May)

Event Time Altitude Azimuth Distance (km) Brightness Sun altitude
Rises 20:33:56 0° 297° (WNW) 2,760 8.9 -17.0°
Reaches altitude 10° 20:36:11 10° 297° (WNW) 1,861 7.6 -17.3°
Maximum altitude 20:40:26 85° 211° (SSW) 571 3.6 -17.9°
Enters shadow 20:41:48 42° 124° (SE) 808 3.9 -18.1°
